AAL1802 KLAX-KATL

Flight info

Callsign AAL1802
Flight time N/A
Altitude 33000
Route DOTSS2 CLEEE PKE HIDAT KA27O NABOB J74 SJN J231 ACH/N0448F350 TCC J78 IRW J14 LIT J66 BEATS RUSSA GLAVN2
Aircraft A321/M-SDE3FGHIRWY/LB1

Departure

Time 2026-04-23 14:21
Airport Los Angeles International Airport (KLAX)

Arrival

Time N/A
Airport Hartsfield Jackson Atlanta International Airport (KATL)
Time Latitude Longitude Altitude Speed Heading
2026-04-23 14:04 33.94696 -118.40498 95 ft 0 kts 111°
2026-04-23 14:11 33.94698 -118.40505 93 ft 2 kts 107°
2026-04-23 14:11 33.94703 -118.40524 93 ft 2 kts 99°
2026-04-23 14:11 33.94704 -118.40544 94 ft 2 kts 78°
2026-04-23 14:12 33.94698 -118.40562 93 ft 2 kts 33°
2026-04-23 14:12 33.94683 -118.40569 92 ft 2 kts
2026-04-23 14:12 33.94678 -118.40570 93 ft 0 kts 354°
2026-04-23 14:17 33.94689 -118.40571 92 ft 5 kts 354°
2026-04-23 14:17 33.94746 -118.40578 93 ft 11 kts 351°
2026-04-23 14:17 33.94840 -118.40598 95 ft 12 kts 11°
2026-04-23 14:17 33.94875 -118.40492 96 ft 18 kts 83°
2026-04-23 14:18 33.94892 -118.40317 94 ft 23 kts 83°
2026-04-23 14:18 33.94907 -118.40171 96 ft 17 kts 83°
2026-04-23 14:18 33.94921 -118.40032 93 ft 17 kts 83°
2026-04-23 14:18 33.94951 -118.39930 94 ft 0 kts 37°
2026-04-23 14:19 33.94970 -118.39917 93 ft 9 kts 25°
2026-04-23 14:19 33.95039 -118.39964 94 ft 15 kts 273°
2026-04-23 14:20 33.95038 -118.39982 96 ft 0 kts 264°
2026-04-23 14:20 33.95010 -118.40266 98 ft 69 kts 263°
2026-04-23 14:20 33.94923 -118.41103 98 ft 130 kts 263°
2026-04-23 14:20 33.94788 -118.42393 114 ft 176 kts 262°
2026-04-23 14:21 33.94626 -118.43859 741 ft 175 kts 263°
2026-04-23 14:21 33.94467 -118.45300 1434 ft 174 kts 263°
2026-04-23 14:21 33.94333 -118.46758 2004 ft 180 kts 266°
2026-04-23 14:21 33.94261 -118.48346 2191 ft 201 kts 269°
2026-04-23 14:22 33.94217 -118.50112 2337 ft 221 kts 269°
2026-04-23 14:22 33.93830 -118.52002 2445 ft 248 kts 239°
2026-04-23 14:22 33.92533 -118.53440 2813 ft 264 kts 204°
2026-04-23 14:22 33.90708 -118.53790 3380 ft 272 kts 178°
2026-04-23 14:23 33.88803 -118.53679 4012 ft 276 kts 176°
2026-04-23 14:23 33.86868 -118.53517 4674 ft 280 kts 176°
2026-04-23 14:23 33.84938 -118.53341 5305 ft 284 kts 176°
2026-04-23 14:23 33.82958 -118.53162 5969 ft 286 kts 176°
2026-04-23 14:24 33.80964 -118.52986 6629 ft 289 kts 176°
2026-04-23 14:24 33.78946 -118.52813 7240 ft 292 kts 177°
2026-04-23 14:24 33.76912 -118.52647 7851 ft 295 kts 178°
2026-04-23 14:24 33.74855 -118.52484 8445 ft 297 kts 179°